Location: Newark
(31.5350°N, 35.0986°E)
Time: 18:32:31
(UTC+00:00)

A-11 Canister half - All Passes

Search period start: 18 October 2019 00:00
Search period end: 28 October 2019 00:00
Orbit: 1514 x 1686 km, 47.2° (Epoch: 18 October)

Date Brightness Start Highest point End Pass type
(mag) Time Alt. Az. Time Alt. Az. Time Alt. Az.
18 Oct - 00:30:50 10° WSW 00:40:35 56° NNW 00:50:02 10° NE visible
18 Oct - 02:39:03 10° WNW 02:47:27 31° N 02:55:37 10° NE visible
18 Oct - 04:46:03 10° NW 04:54:50 39° NNE 05:03:22 10° E daylight
18 Oct - 06:51:09 10° NW 07:00:34 86° SW 07:09:48 10° SE daylight
18 Oct - 08:57:58 10° W 09:04:28 22° SW 09:10:58 10° S daylight
18 Oct - 22:03:04 10° SSW 22:12:38 49° SE 22:21:57 10° ENE visible
19 Oct - 00:07:45 10° WSW 00:17:35 58° NNW 00:27:07 10° NE visible
19 Oct - 02:15:55 10° WNW 02:24:23 32° N 02:32:38 10° NE visible
19 Oct - 04:23:04 10° NW 04:31:48 38° NNE 04:40:18 10° E daylight
19 Oct - 06:28:12 10° NW 06:37:40 89° NE 06:46:55 10° SE daylight
19 Oct - 08:34:46 10° WNW 08:41:38 24° SW 08:48:30 10° S daylight
19 Oct - 21:40:17 10° SSW 21:49:44 46° SE 21:58:57 10° ENE visible
19 Oct - 23:44:41 10° WSW 23:54:36 61° NNW 00:04:12 10° NE visible
20 Oct - 01:52:46 10° WNW 02:01:19 32° N 02:09:37 10° NE visible
20 Oct - 04:00:04 10° NW 04:08:47 37° NNE 04:17:14 10° E daylight
20 Oct - 06:05:15 10° NW 06:14:45 85° NE 06:24:00 10° SE daylight
20 Oct - 08:11:36 10° WNW 08:18:48 26° SW 08:25:59 10° S daylight
20 Oct - 21:17:31 10° SSW 21:26:50 43° SE 21:35:56 10° ENE visible
20 Oct - 23:21:39 10° WSW 23:31:37 65° NNW 23:41:17 10° NE visible
21 Oct - 01:29:36 10° WNW 01:38:15 33° N 01:46:38 10° NE visible
21 Oct - 03:37:04 10° NW 03:45:44 36° NNE 03:54:09 10° E daylight
21 Oct - 05:42:19 10° NW 05:51:50 80° NE 06:01:06 10° SE daylight
21 Oct - 07:48:27 10° WNW 07:55:59 28° SW 08:03:27 10° S daylight
21 Oct - 20:54:47 10° SSW 21:03:57 40° SE 21:12:54 10° ENE night (unlit)
21 Oct - 22:58:36 10° WSW 23:08:38 68° NW 23:18:24 10° NE visible
22 Oct - 01:06:27 10° WNW 01:15:11 34° NNW 01:23:39 10° NE visible
22 Oct - 03:14:03 10° NW 03:22:42 35° NNE 03:31:04 10° ENE visible
22 Oct - 05:19:22 10° NW 05:28:55 76° NE 05:38:10 10° ESE daylight
22 Oct - 07:25:20 10° WNW 07:33:09 31° SW 07:40:51 10° S daylight
22 Oct - 20:32:05 10° SSW 20:41:03 37° SE 20:49:51 10° ENE night (unlit)
22 Oct - 22:35:34 10° WSW 22:45:40 72° NW 22:55:29 10° NE visible
23 Oct - 00:43:17 10° WNW 00:52:07 34° NNW 01:00:41 10° NE visible
23 Oct - 02:51:01 10° NW 02:59:38 34° NNE 03:08:00 10° ENE visible
23 Oct - 04:56:25 10° NW 05:05:59 72° NE 05:15:13 10° ESE daylight
23 Oct - 07:02:14 10° WNW 07:10:18 34° SW 07:18:15 10° S daylight
23 Oct - 20:09:23 10° S 20:18:09 34° SE 20:26:46 10° ENE night (unlit)
23 Oct - 22:12:33 10° WSW 22:22:41 75° NW 22:32:33 10° NE visible
24 Oct - 00:20:08 10° WNW 00:29:03 35° NNW 00:37:43 10° NE visible
24 Oct - 02:28:00 10° NW 02:36:35 34° NNE 02:44:55 10° ENE visible
24 Oct - 04:33:29 10° NW 04:43:02 69° NE 04:52:16 10° ESE daylight
24 Oct - 06:39:10 10° WNW 06:47:28 36° SW 06:55:38 10° SSE daylight
24 Oct - 19:46:43 10° S 19:55:16 32° SE 20:03:41 10° ENE night (unlit)
24 Oct - 21:49:33 10° SW 21:59:43 79° NW 22:09:38 10° NE visible
24 Oct - 23:56:58 10° W 00:05:59 36° NNW 00:14:45 10° NE visible
25 Oct - 02:04:56 10° NW 02:13:32 33° N 02:21:50 10° ENE visible
25 Oct - 04:10:33 10° NW 04:20:05 65° NNE 04:29:18 10° ESE daylight
25 Oct - 06:16:07 10° WNW 06:24:37 39° SW 06:32:57 10° SSE daylight
25 Oct - 19:24:06 10° S 19:32:24 29° SE 19:40:34 10° ENE night (unlit)
25 Oct - 21:26:34 10° SW 21:36:45 83° NW 21:46:43 10° NE visible
25 Oct - 23:33:49 10° W 23:42:56 38° NNW 23:51:48 10° NE visible
26 Oct - 01:41:53 10° NW 01:50:28 32° N 01:58:46 10° ENE visible
26 Oct - 03:47:35 10° NW 03:57:08 62° NNE 04:06:19 10° ESE daylight
26 Oct - 05:53:04 10° WNW 06:01:46 43° SW 06:10:16 10° SSE daylight
26 Oct - 19:01:31 10° S 19:09:30 27° SE 19:17:25 10° ENE night (unlit)
26 Oct - 21:03:36 10° SW 21:13:47 88° NW 21:23:47 10° NE night (unlit)
26 Oct - 23:10:40 10° W 23:19:52 39° NNW 23:28:50 10° NE visible
27 Oct - 01:18:49 10° NW 01:27:23 32° N 01:35:41 10° ENE visible
27 Oct - 03:24:39 10° NW 03:34:10 59° NNE 03:43:21 10° ESE visible
27 Oct - 05:30:02 10° WNW 05:38:55 46° SW 05:47:34 10° SSE daylight
27 Oct - 18:38:58 10° S 18:46:38 25° SE 18:54:14 10° ENE night (unlit)
27 Oct - 20:40:38 10° SW 20:50:51 88° SE 21:00:52 10° NE night (unlit)
27 Oct - 22:47:31 10° W 22:56:49 40° NNW 23:05:53 10° NE visible
